[[{"header":{"parameterUnit":"m.s-1","parameterCategory":2,"la1":30.2991,"la2":30.254,"lo1":-89.0895,"lo2":-89.0444,"dy":0.0017,"dx":0.0017,"nx":28,"ny":28,"refTime":"2024-11-30T09:00:00:Z","depth":"0","parameterNumber":2,"parameterNumberName":"U-component_of_CURRENTS"},"data":[0,0,0,0,0,0,0,0,0,0,0,0,0,0,0,0,0,0,0,0,0,0,0,0,0,0,0,0,0,0,0,0,0,0,0,0,0,0,0,0,0,0,0,0,0,0,0,0,0,0,0,0,0,0,0,0,0,0,0.2456,0.2456,0,0.246,0.246,0.246,0.2446,0.2446,0.2445,0.2445,0.2418,0.2417,0.2417,0,0,0,0,0,0,0,0,0,0,0,0,0,0.2438,0.2438,0.2455,0.2456,0.2456,0.2461,0.246,0.246,0.2446,0.2446,0.2445,0.2445,0.2418,0.2417,0.2417,0,0,0,0,0,0,0,0,0,0,0,0,0,0.2443,0.2438,0.2455,0.2451,0.2451,0.2461,0.246,0.246,0.2446,0.2446,0.2445,0.2445,0.2418,0.2417,0.2417,0.242,0,0,0.2414,0.2414,0,0,0,0,0,0,0,0,0.2442,0.2443,0.2451,0.2451,0.2451,0.2454,0.2444,0.2446,0.2446,0.2446,0.2445,0.2445,0.2428,0.2427,0.2426,0.2418,0.2417,0.2414,0.2414,0.2413,0.2413,0,0,0,0,0,0,0,0.2442,0.2443,0.2455,0.2452,0.2451,0.245,0.245,0.2445,0.2437,0.2446,0.2445,0.2449,0.2428,0.2427,0.2425,0.2417,0.2414,0.2414,0.2413,0.2413,0.2446,0.2447,0,0,0,0,0,0,0.2446,0.2443,0.2455,0.2456,0.2448,0.2451,0.2451,0.2452,0.2438,0.2436,0.2449,0.2448,0.2428,0.2426,0.2424,0.2452,0.2413,0.2413,0.2412,0.2445,0.2446,0.2448,0,0,0,0,0,0,0.2445,0.2447,0.2455,0.2451,0.2452,0.2452,0.2453,0.2452,0.2455,0.2441,0.2438,0.2454,0.2428,0.2425,0.2431,0.245,0.2412,0.2412,0.2443,0.2445,0.2447,0.2492,0,0,0,0,0,0,0.2445,0.2447,0.2448,0.2451,0.2453,0.2468,0.2453,0.2453,0.2459,0.2458,0.2444,0.2441,0.2427,0.2432,0.243,0.2448,0.2411,0.2441,0.2444,0.2446,0.2488,0.2495,0.25,0,0,0,0,0,0.2444,0.2447,0.2448,0.2449,0.2455,0.2469,0.2469,0.2466,0.246,0.2466,0.246,0.2442,0.2446,0.2432,0.243,0.2448,0.244,0.2443,0.2446,0.2486,0.2494,0.25,0,0,0,0,0,0,0.2437,0.2446,0.2447,0.2451,0.2464,0.2467,0.2472,0.2472,0.2472,0.247,0.2453,0.2451,0.2467,0.2453,0.2438,0.2467,0.2442,0.2445,0.2474,0.2481,0.2487,0.2501,0.2411,0,0,0,0,0,0.2438,0.2442,0.2454,0.2458,0.2466,0.2471,0.2476,0.2478,0.248,0.248,0.2472,0.2469,0.2477,0.2474,0.2477,0.2486,0.2493,0.2499,0.2505,0.251,0.2522,0.2554,0.2564,0.2457,0.2457,0.2457,0,0,0.2434,0.2441,0.2442,0.2457,0.2465,0.2483,0.2472,0.2486,0.2501,0.2477,0.249,0.249,0.2486,0.2503,0.2509,0.2492,0.2545,0.2514,0.2518,0.2527,0.2558,0.2568,0.2578,0.2459,0.2459,0.2459,0,0,0.2436,0.2439,0.2448,0.2464,0.2483,0.2491,0.2499,0.251,0.2516,0.2529,0.2526,0.2541,0.2534,0.2548,0.2551,0.2592,0.258,0.2589,0.2623,0.2654,0.2663,0.2671,0.2695,0.2705,0.2586,0.2586,0.2586,0,0.2432,0.2446,0.2454,0.2474,0.2488,0.2498,0.2518,0.2531,0.2542,0.2556,0.2538,0.2566,0.256,0.26,0.2615,0.2606,0.2617,0.2593,0.2662,0.267,0.2677,0.27,0.271,0.2589,0.2589,0.2588,0.2588,0,0.2446,0.2462,0.2471,0.25,0.2516,0.2536,0.2559,0.2578,0.2582,0.2595,0.263,0.2629,0.2647,0.2651,0.2642,0.2698,0.2687,0.2669,0.2642,0.2691,0.2711,0.2721,0.2592,0.2592,0.2591,0.259,0,0,0.2426,0.2472,0.2475,0.2491,0.2533,0.2543,0.2585,0.2623,0.265,0.2663,0.2698,0.2721,0.2724,0.273,0.2729,0.2754,0.2813,0.2734,0.2734,0.2755,0.2881,0.2866,0.2875,0.2805,0.2807,0.2808,0.2874,0,0.2437,0.247,0.2497,0.2529,0.2547,0.2582,0.2618,0.2654,0.268,0.2717,0.274,0.2767,0.2754,0.2762,0.2792,0.2812,0.2841,0.2797,0.2833,0.2834,0.2813,0.2887,0.2806,0.2858,0.2883,0.2885,0.2886,0,0.2442,0.2464,0.2495,0.2541,0.2554,0.2576,0.2633,0.267,0.2737,0.2759,0.2803,0.2818,0.2875,0.2843,0.2914,0.2885,0.2893,0.29,0.2902,0.2881,0.2838,0.2814,0.2874,0.2841,0.2901,0.29,0.2899,0,0.2411,0.2461,0.2482,0.2498,0.2554,0.2577,0.2611,0.2678,0.272,0.2789,0.2825,0.2883,0.2919,0.2946,0.2974,0.2946,0.3044,0.3001,0.2997,0.2996,0.2932,0.2922,0.2963,0.3052,0.3052,0.3052,0.3052,0,0.2406,0.2421,0.2464,0.2473,0.2505,0.2551,0.2597,0.2648,0.2727,0.278,0.2841,0.2895,0.2948,0.3007,0.301,0.3051,0.3077,0.3029,0.3023,0.2946,0.2936,0.2907,0.2872,0.3054,0.3054,0.3053,0.3053,0,0.2368,0.24,0.2423,0.2474,0.249,0.2509,0.2587,0.2623,0.2706,0.2781,0.2808,0.2927,0.3006,0.3056,0.3114,0.3103,0.3057,0.3131,0.3038,0.3021,0.2963,0.2934,0.2855,0.2746,0.3135,0.3135,0.3135,0,0.235,0.2358,0.2407,0.2421,0.2442,0.248,0.2513,0.26,0.265,0.2794,0.2832,0.2949,0.3021,0.3126,0.3141,0.3169,0.3067,0.3092,0.3022,0.2978,0.2941,0.2818,0.2722,0.2954,0.2953,0.2952,0.2951,0,0.2318,0.2337,0.2357,0.2384,0.2409,0.2438,0.2494,0.2531,0.2639,0.2707,0.281,0.2883,0.3025,0.3045,0.3111,0.3108,0.2962,0.307,0.3049,0.2837,0.2681,0.2567,0.2892,0.2941,0.2942,0.2943,0.2944,0.2944,0.2294,0.2296,0.2323,0.234,0.2365,0.2379,0.2376,0.2449,0.2507,0.2595,0.2722,0.2808,0.2936,0.3031,0.3011,0.2974,0.2905,0.2892,0.2872,0.2761,0.2619,0.2929,0.2955,0.2956,0.2956,0.2957,0.2958,0,0.2249,0.2257,0.2277,0.2282,0.2271,0.2309,0.2347,0.2334,0.2357,0.2496,0.2568,0.2711,0.2774,0.2857,0.2894,0.2805,0.2647,0.2731,0.2547,0.2466,0.2785,0.2743,0.2693,0.2693,0.2693,0.2693,0.2693,0.2693,0.2229,0.2219,0.2221,0.2178,0.2178,0.2129,0.2126,0.2133,0.221,0.2282,0.2374,0.2496,0.2714,0.287,0.2825,0.273,0.2494,0.2403,0.2352,0.2619,0.2632,0.2644,0.2599,0.252,0.252,0.1933,0.1929,0.1926]},{"header":{"parameterUnit":"m.s-1","parameterCategory":2,"la1":30.2991,"la2":30.254,"lo1":-89.0895,"lo2":-89.0444,"dy":0.0017,"dx":0.0017,"nx":28,"ny":28,"refTime":"2024-11-30T09:00:00:Z","depth":"0","parameterNumber":3,"parameterNumberName":"V-component_of_CURRENTS"},"data":[0,0,0,0,0,0,0,0,0,0,0,0,0,0,0,0,0,0,0,0,0,0,0,0,0,0,0,0,0,0,0,0,0,0,0,0,0,0,0,0,0,0,0,0,0,0,0,0,0,0,0,0,0,0,0,0,0,0,-0.01,-0.0101,0,-0.0156,-0.0157,-0.0158,-0.0193,-0.0193,-0.0193,-0.0193,-0.024,-0.0241,-0.0242,0,0,0,0,0,0,0,0,0,0,0,0,0,-0.0066,-0.0066,-0.01,-0.0101,-0.0101,-0.0156,-0.0157,-0.0158,-0.0193,-0.0193,-0.0193,-0.0193,-0.024,-0.0241,-0.0242,0,0,0,0,0,0,0,0,0,0,0,0,0,-0.0098,-0.0066,-0.01,-0.0125,-0.0127,-0.0156,-0.0157,-0.0158,-0.0193,-0.0193,-0.0193,-0.0193,-0.0239,-0.0241,-0.0242,-0.025,0,0,-0.0248,-0.0248,0,0,0,0,0,0,0,0,-0.0096,-0.01,-0.012,-0.0123,-0.0126,-0.0167,-0.0162,-0.0188,-0.0193,-0.0169,-0.0193,-0.0193,-0.0214,-0.0218,-0.0229,-0.0252,-0.0254,-0.0248,-0.0249,-0.025,-0.025,0,0,0,0,0,0,0,-0.0094,-0.0098,-0.0123,-0.0121,-0.0124,-0.0147,-0.0152,-0.0167,-0.019,-0.0171,-0.0174,-0.0178,-0.0215,-0.0228,-0.0231,-0.0255,-0.0248,-0.0249,-0.025,-0.0251,-0.0279,-0.0279,0,0,0,0,0,0,-0.0083,-0.0095,-0.0122,-0.0125,-0.011,-0.0148,-0.0153,-0.0154,-0.0191,-0.0196,-0.0178,-0.018,-0.0225,-0.0229,-0.0232,-0.0227,-0.025,-0.0251,-0.0252,-0.028,-0.0279,-0.0279,0,0,0,0,0,0,-0.0082,-0.0084,-0.0119,-0.0111,-0.0117,-0.0148,-0.015,-0.0155,-0.0164,-0.0196,-0.0201,-0.018,-0.0225,-0.023,-0.024,-0.0229,-0.0252,-0.0254,-0.028,-0.028,-0.0279,-0.0226,0,0,0,0,0,0,-0.008,-0.0083,-0.0081,-0.011,-0.0117,-0.0127,-0.015,-0.0156,-0.0167,-0.0169,-0.0199,-0.0204,-0.0225,-0.0237,-0.0241,-0.0232,-0.0255,-0.028,-0.028,-0.0279,-0.0228,-0.0223,-0.022,0,0,0,0,0,-0.0079,-0.007,-0.008,-0.0083,-0.0112,-0.0126,-0.0132,-0.0156,-0.0166,-0.0165,-0.0186,-0.0203,-0.0237,-0.0238,-0.0243,-0.0234,-0.0281,-0.028,-0.0279,-0.0229,-0.0224,-0.022,0,0,0,0,0,0,-0.0053,-0.0074,-0.0085,-0.0083,-0.01,-0.0132,-0.0133,-0.015,-0.0167,-0.0168,-0.0199,-0.0205,-0.0211,-0.023,-0.023,-0.0242,-0.0262,-0.0262,-0.0222,-0.0217,-0.0214,-0.0194,-0.0256,0,0,0,0,0,-0.0046,-0.0045,-0.0069,-0.0068,-0.0073,-0.0102,-0.0111,-0.0126,-0.0146,-0.0154,-0.0176,-0.0198,-0.0214,-0.022,-0.024,-0.0242,-0.0263,-0.0241,-0.0237,-0.0234,-0.0222,-0.0249,-0.0246,-0.0277,-0.0277,-0.0277,0,0,-0.0037,-0.0047,-0.0048,-0.0063,-0.0078,-0.0075,-0.0108,-0.0115,-0.0112,-0.0155,-0.0157,-0.0185,-0.0213,-0.0219,-0.0223,-0.0231,-0.0236,-0.0233,-0.0229,-0.022,-0.0248,-0.0245,-0.0242,-0.0277,-0.0277,-0.0277,0,0,-0.0013,-0.0025,-0.0015,-0.0024,-0.0039,-0.0054,-0.0051,-0.0078,-0.0089,-0.0098,-0.0127,-0.0145,-0.0172,-0.0188,-0.02,-0.0184,-0.0216,-0.0193,-0.0154,-0.018,-0.0177,-0.0175,-0.0197,-0.0197,-0.0188,-0.0188,-0.0188,0,-0.0,0.001,-0.0015,-0.0005,-0.0004,-0.0038,-0.0021,-0.0037,-0.0064,-0.0067,-0.0089,-0.0129,-0.0156,-0.0158,-0.0155,-0.0174,-0.0194,-0.0168,-0.0174,-0.0172,-0.0171,-0.0194,-0.0195,-0.0186,-0.0186,-0.0186,-0.0187,0,0.0031,0.0041,0.0047,0.0051,0.0048,0.0057,0.0037,0.0032,0.0013,-0.0007,-0.0021,-0.0065,-0.0086,-0.0102,-0.0124,-0.0126,-0.0144,-0.0167,-0.0183,-0.0164,-0.019,-0.0192,-0.0182,-0.0183,-0.0184,-0.0184,0,0,0.0064,0.0069,0.0074,0.009,0.0082,0.0087,0.0095,0.0095,0.0108,0.0065,0.0073,0.0029,-0.0002,-0.0017,-0.0053,-0.0077,-0.0092,-0.0113,-0.0116,-0.0128,-0.0147,-0.0166,-0.0171,-0.0119,-0.0119,-0.0119,-0.0167,0,0.01,0.0136,0.0127,0.0167,0.0186,0.0166,0.0181,0.0174,0.0155,0.0152,0.01,0.0088,0.0033,0.0023,-0.001,-0.0068,-0.0095,-0.0077,-0.0168,-0.017,-0.0185,-0.0173,-0.017,-0.0214,-0.017,-0.017,-0.017,0,0.0141,0.0162,0.0205,0.0236,0.0244,0.0257,0.0282,0.029,0.0272,0.0254,0.0223,0.018,0.0143,0.0088,-0.0002,0.0012,-0.0059,-0.0113,-0.0116,-0.0152,-0.0193,-0.0226,-0.0219,-0.0374,-0.0174,-0.0174,-0.0173,0,0.0188,0.0222,0.0262,0.027,0.0293,0.0309,0.0322,0.032,0.0344,0.0316,0.0324,0.0259,0.0238,0.014,0.0026,0.0012,-0.0077,-0.0112,-0.0197,-0.02,-0.0222,-0.0227,-0.0369,-0.0177,-0.0177,-0.0177,-0.0177,0,0.0238,0.0271,0.0286,0.0307,0.0366,0.0358,0.041,0.041,0.0422,0.0462,0.038,0.0395,0.025,0.0181,0.0059,-0.0068,-0.0055,-0.0183,-0.0211,-0.0204,-0.0206,-0.0363,-0.0459,-0.0179,-0.0179,-0.0178,-0.0178,0,0.0284,0.0291,0.0341,0.0371,0.0388,0.0428,0.0479,0.0519,0.0512,0.056,0.0558,0.0505,0.0413,0.0262,0.0111,-0.0011,-0.0239,-0.0194,-0.0174,-0.0199,-0.0425,-0.0517,-0.0696,-0.0773,-0.0294,-0.0294,-0.0295,0,0.0311,0.034,0.0391,0.043,0.0444,0.0498,0.0546,0.0563,0.0614,0.0635,0.0675,0.0603,0.0572,0.0339,0.0111,-0.0104,-0.0262,-0.0253,-0.0284,-0.0433,-0.0557,-0.0628,-0.0685,-0.0295,-0.0296,-0.0296,-0.0297,0,0.0367,0.038,0.0422,0.0497,0.0552,0.062,0.0686,0.0743,0.0774,0.0814,0.086,0.0836,0.0618,0.0416,0.0112,-0.0055,-0.0378,-0.027,-0.0433,-0.0574,-0.0653,-0.0741,-0.027,-0.0301,-0.0301,-0.03,-0.03,-0.03,0.0411,0.045,0.0502,0.0575,0.0643,0.073,0.079,0.087,0.096,0.1028,0.1007,0.0998,0.0688,0.0283,0.0037,-0.0411,-0.0421,-0.0544,-0.0643,-0.0701,-0.0782,-0.0315,-0.0375,-0.0375,-0.0375,-0.0375,-0.0375,0,0.0466,0.0508,0.0579,0.0661,0.0736,0.0762,0.088,0.094,0.1047,0.1125,0.1158,0.0997,0.0621,0.0209,-0.0374,-0.0703,-0.0839,-0.0903,-0.101,-0.105,-0.0638,-0.0643,-0.0753,-0.0753,-0.0753,-0.0753,-0.0752,-0.0752,0.0498,0.0568,0.0598,0.0722,0.078,0.0872,0.0936,0.1031,0.1108,0.1165,0.116,0.113,0.0779,-0.0187,-0.0896,-0.107,-0.1329,-0.1392,-0.1517,-0.1243,-0.1217,-0.1192,-0.122,-0.1449,-0.145,-0.1875,-0.188,-0.1883]}],[{"header":{"parameterUnit":"m.s-1","parameterCategory":2,"la1":30.2991,"la2":30.254,"lo1":-89.0895,"lo2":-89.0444,"dy":0.0017,"dx":0.0017,"nx":28,"ny":28,"refTime":"2024-11-30T09:00:00:Z","depth":"2","parameterNumber":2,"parameterNumberName":"U-component_of_CURRENTS"},"data":[0,0,0,0,0,0,0,0,0,0,0,0,0,0,0,0,0,0,0,0,0,0,0,0,0,0,0,0,0,0,0,0,0,0,0,0,0,0,0,0,0,0,0,0,0,0,0,0,0,0,0,0,0,0,0,0,0,0,0.2421,0.2421,0,0.2427,0.2427,0.2427,0.2416,0.2416,0.2416,0.2416,0.2394,0.2394,0.2394,0,0,0,0,0,0,0,0,0,0,0,0,0,0.2403,0.2403,0.2421,0.2421,0.2421,0.2427,0.2427,0.2427,0.2416,0.2416,0.2416,0.2415,0.2395,0.2394,0.2394,0,0,0,0,0,0,0,0,0,0,0,0,0,0.2408,0.2403,0.2421,0.2418,0.2418,0.2427,0.2427,0.2427,0.2416,0.2416,0.2416,0.2415,0.2395,0.2394,0.2394,0.2396,0,0,0.2392,0.2392,0,0,0,0,0,0,0,0,0.2408,0.2409,0.2418,0.2418,0.2418,0.2422,0.2413,0.2416,0.2416,0.2415,0.2416,0.2415,0.2403,0.2401,0.2401,0.2395,0.2394,0.2392,0.2391,0.2391,0.2391,0,0,0,0,0,0,0,0.2407,0.2408,0.2421,0.2418,0.2419,0.2418,0.2418,0.2414,0.2408,0.2415,0.2415,0.2419,0.2402,0.2402,0.24,0.2394,0.2392,0.2391,0.2391,0.2391,0.2428,0.2429,0,0,0,0,0,0,0.2411,0.2408,0.2421,0.2422,0.2414,0.2419,0.2419,0.242,0.2409,0.2408,0.2419,0.2418,0.2403,0.2401,0.2399,0.2431,0.2391,0.2391,0.239,0.2426,0.2428,0.243,0,0,0,0,0,0,0.241,0.2412,0.2421,0.2417,0.2418,0.2419,0.242,0.242,0.2425,0.2413,0.241,0.2425,0.2402,0.24,0.2408,0.2428,0.239,0.239,0.2425,0.2427,0.2429,0.2474,0,0,0,0,0,0,0.241,0.2411,0.2414,0.2417,0.2418,0.2434,0.2421,0.242,0.2429,0.2428,0.2418,0.2415,0.2402,0.2409,0.2408,0.2427,0.2389,0.2423,0.2426,0.2428,0.2471,0.2477,0.2483,0,0,0,0,0,0.2409,0.2413,0.2414,0.2416,0.2422,0.2435,0.2436,0.2434,0.243,0.2437,0.2433,0.2416,0.2424,0.241,0.2408,0.2427,0.2422,0.2425,0.2428,0.2468,0.2476,0.2483,0,0,0,0,0,0,0.2404,0.2412,0.2414,0.2419,0.2431,0.2434,0.244,0.2441,0.2444,0.2443,0.2427,0.2425,0.2444,0.2431,0.2415,0.2448,0.2422,0.2425,0.2454,0.2461,0.2467,0.248,0.2389,0,0,0,0,0,0.2406,0.241,0.2422,0.2427,0.2435,0.244,0.2445,0.2448,0.2451,0.2452,0.2446,0.2445,0.2454,0.2453,0.2456,0.2467,0.2473,0.2481,0.2487,0.2492,0.2504,0.2535,0.2545,0.2439,0.2439,0.2439,0,0,0.2403,0.241,0.2412,0.2427,0.2434,0.2452,0.2442,0.2457,0.2473,0.2449,0.2465,0.2466,0.2464,0.2482,0.2489,0.2472,0.2526,0.2496,0.25,0.2509,0.2539,0.2549,0.2558,0.2441,0.2441,0.2441,0,0,0.2407,0.2411,0.2421,0.2436,0.2455,0.2463,0.2471,0.2482,0.2489,0.2504,0.2501,0.2518,0.2514,0.2528,0.2531,0.2573,0.2561,0.2571,0.2606,0.2636,0.2645,0.2653,0.2675,0.2685,0.2569,0.2569,0.2569,0,0.2405,0.242,0.2426,0.2446,0.246,0.2471,0.2491,0.2504,0.2516,0.2531,0.2514,0.2545,0.254,0.258,0.2596,0.2588,0.2598,0.2576,0.2644,0.2652,0.2659,0.268,0.269,0.2572,0.2572,0.2571,0.2571,0,0.242,0.2436,0.2446,0.2473,0.249,0.2509,0.2532,0.2552,0.2558,0.257,0.2607,0.2608,0.2627,0.2631,0.2623,0.2679,0.2668,0.2651,0.2624,0.2672,0.2691,0.2701,0.2576,0.2575,0.2574,0.2573,0,0,0.2404,0.2447,0.2451,0.2466,0.2507,0.2517,0.2559,0.2597,0.2624,0.2639,0.2675,0.2699,0.2704,0.271,0.271,0.2734,0.2793,0.2716,0.2716,0.2736,0.2858,0.2838,0.2846,0.2785,0.2787,0.2789,0.2851,0,0.2415,0.2447,0.2472,0.2505,0.2522,0.2556,0.2592,0.2629,0.2655,0.2692,0.2717,0.2745,0.2733,0.2743,0.2773,0.2792,0.282,0.2778,0.2811,0.2812,0.2786,0.2858,0.2597,0.263,0.286,0.2862,0.2863,0,0.2421,0.2442,0.2473,0.2518,0.253,0.2553,0.261,0.2646,0.2713,0.2735,0.278,0.2796,0.2853,0.2822,0.2891,0.2864,0.2871,0.2878,0.288,0.2854,0.281,0.2619,0.2638,0.2878,0.2877,0.2876,0.2875,0,0.2392,0.2441,0.2462,0.2477,0.2533,0.2556,0.259,0.2656,0.2698,0.2768,0.2803,0.2861,0.2897,0.2924,0.2951,0.2923,0.3017,0.2975,0.2966,0.2964,0.2746,0.2722,0.3025,0.3025,0.3025,0.3025,0.3024,0,0.2388,0.2403,0.2446,0.2455,0.2488,0.2533,0.258,0.263,0.2708,0.2761,0.2821,0.2873,0.2926,0.2982,0.2984,0.3021,0.3049,0.2997,0.299,0.2756,0.2733,0.2946,0.2936,0.3027,0.3026,0.3026,0.3026,0,0.2352,0.2383,0.2407,0.2457,0.2474,0.2494,0.2572,0.2608,0.269,0.2764,0.2792,0.2905,0.2981,0.3028,0.3084,0.307,0.3094,0.3093,0.282,0.2782,0.3008,0.2999,0.3089,0.3089,0.3089,0.3089,0.3089,0,0.2335,0.2344,0.2393,0.2407,0.2429,0.2468,0.2501,0.2587,0.2636,0.2776,0.2812,0.2925,0.2987,0.3084,0.3065,0.308,0.3122,0.2856,0.2763,0.3036,0.302,0.3012,0.3003,0.2483,0.2478,0.2474,0.2471,0,0.2305,0.2325,0.2345,0.2372,0.2398,0.2427,0.2483,0.2519,0.2624,0.2688,0.2784,0.2847,0.2951,0.2861,0.2908,0.2878,0.2833,0.2778,0.313,0.2525,0.2474,0.2456,0.2465,0.2435,0.2438,0.2441,0.2443,0.2444,0.2283,0.2286,0.2312,0.233,0.2356,0.2368,0.2366,0.2421,0.2473,0.2518,0.2657,0.2647,0.2684,0.2624,0.2559,0.2504,0.2702,0.2556,0.2563,0.2576,0.2513,0.2467,0.2414,0.2417,0.242,0.2422,0.2425,0,0.2233,0.2248,0.2268,0.2273,0.2253,0.2302,0.2336,0.2287,0.2283,0.2344,0.2378,0.2192,0.2156,0.219,0.2054,0.2086,0.2015,0.1996,0.1855,0.1895,0.1929,0.1827,0.1548,0.1545,0.1543,0.154,0,0,0.2213,0.2199,0.2201,0.2152,0.2159,0.2088,0.2083,0.2026,0.2023,0.1948,0.1908,0.204,0.213,0.1795,0.177,0.163,0.1743,0.1569,0.2276,0.215,0.218,0.2265,0.2157,0,0,0,0,0]},{"header":{"parameterUnit":"m.s-1","parameterCategory":2,"la1":30.2991,"la2":30.254,"lo1":-89.0895,"lo2":-89.0444,"dy":0.0017,"dx":0.0017,"nx":28,"ny":28,"refTime":"2024-11-30T09:00:00:Z","depth":"2","parameterNumber":3,"parameterNumberName":"V-component_of_CURRENTS"},"data":[0,0,0,0,0,0,0,0,0,0,0,0,0,0,0,0,0,0,0,0,0,0,0,0,0,0,0,0,0,0,0,0,0,0,0,0,0,0,0,0,0,0,0,0,0,0,0,0,0,0,0,0,0,0,0,0,0,0,-0.002,-0.002,0,-0.0074,-0.0075,-0.0076,-0.0111,-0.0111,-0.0112,-0.0112,-0.0158,-0.0159,-0.016,0,0,0,0,0,0,0,0,0,0,0,0,0,0.0014,0.0013,-0.002,-0.002,-0.0021,-0.0074,-0.0075,-0.0076,-0.0111,-0.0111,-0.0112,-0.0112,-0.0158,-0.0159,-0.0161,0,0,0,0,0,0,0,0,0,0,0,0,0,-0.0018,0.0013,-0.002,-0.0044,-0.0047,-0.0074,-0.0075,-0.0076,-0.0111,-0.0111,-0.0112,-0.0112,-0.0158,-0.0159,-0.0161,-0.0166,0,0,-0.0166,-0.0166,0,0,0,0,0,0,0,0,-0.0016,-0.0019,-0.004,-0.0043,-0.0046,-0.0085,-0.008,-0.0105,-0.0111,-0.0088,-0.0112,-0.0112,-0.0132,-0.0136,-0.0147,-0.0168,-0.017,-0.0166,-0.0167,-0.0168,-0.0168,0,0,0,0,0,0,0,-0.0013,-0.0017,-0.0042,-0.0041,-0.0044,-0.0066,-0.0071,-0.0085,-0.0109,-0.009,-0.0092,-0.0097,-0.0134,-0.0146,-0.0149,-0.0171,-0.0166,-0.0167,-0.0168,-0.0169,-0.0196,-0.0196,0,0,0,0,0,0,-0.0003,-0.0015,-0.004,-0.0044,-0.003,-0.0067,-0.0072,-0.0073,-0.0109,-0.0114,-0.0097,-0.0098,-0.0143,-0.0147,-0.015,-0.0146,-0.0168,-0.0169,-0.017,-0.0196,-0.0196,-0.0196,0,0,0,0,0,0,-0.0002,-0.0004,-0.0038,-0.003,-0.0036,-0.0066,-0.0068,-0.0074,-0.0084,-0.0114,-0.0119,-0.01,-0.0143,-0.0148,-0.0158,-0.0148,-0.017,-0.0171,-0.0197,-0.0196,-0.0196,-0.0145,0,0,0,0,0,0,-0.0,-0.0004,-0.0001,-0.0029,-0.0036,-0.0046,-0.0068,-0.0075,-0.0086,-0.0089,-0.0119,-0.0123,-0.0144,-0.0155,-0.0159,-0.0151,-0.0173,-0.0197,-0.0196,-0.0196,-0.0147,-0.0143,-0.0139,0,0,0,0,0,0.0001,0.0009,-0.0001,-0.0004,-0.0031,-0.0045,-0.0051,-0.0074,-0.0086,-0.0085,-0.0106,-0.0122,-0.0155,-0.0156,-0.0161,-0.0153,-0.0197,-0.0197,-0.0196,-0.0149,-0.0144,-0.0139,0,0,0,0,0,0,0.0024,0.0005,-0.0006,-0.0005,-0.0021,-0.0051,-0.0053,-0.007,-0.0087,-0.0088,-0.0118,-0.0124,-0.0131,-0.0149,-0.0149,-0.016,-0.0179,-0.018,-0.0142,-0.0137,-0.0133,-0.0115,-0.0174,0,0,0,0,0,0.0031,0.0031,0.0009,0.001,0.0004,-0.0024,-0.0033,-0.0047,-0.0067,-0.0075,-0.0097,-0.0118,-0.0133,-0.0139,-0.0158,-0.0161,-0.0181,-0.016,-0.0156,-0.0152,-0.0141,-0.0168,-0.0166,-0.0194,-0.0194,-0.0194,0,0,0.0039,0.0029,0.0028,0.0014,-0.0001,0.0002,-0.003,-0.0037,-0.0034,-0.0076,-0.0079,-0.0106,-0.0132,-0.0138,-0.0142,-0.0149,-0.0156,-0.0152,-0.0148,-0.0139,-0.0167,-0.0164,-0.0162,-0.0193,-0.0193,-0.0193,0,0,0.0061,0.0048,0.0058,0.005,0.0035,0.0022,0.0023,-0.0003,-0.0013,-0.0022,-0.0051,-0.0069,-0.0094,-0.0109,-0.012,-0.0105,-0.0137,-0.0114,-0.0076,-0.0102,-0.01,-0.0098,-0.0121,-0.0122,-0.0109,-0.0109,-0.0109,0,0.0072,0.0082,0.0059,0.0068,0.007,0.0036,0.0052,0.0037,0.0011,0.0008,-0.0014,-0.0053,-0.0079,-0.008,-0.0078,-0.0095,-0.0116,-0.009,-0.0097,-0.0095,-0.0095,-0.0118,-0.012,-0.0107,-0.0107,-0.0107,-0.0107,0,0.0101,0.0111,0.0117,0.0121,0.0119,0.0127,0.0109,0.0104,0.0084,0.0065,0.0051,0.0009,-0.0012,-0.0027,-0.0048,-0.005,-0.0069,-0.0091,-0.0106,-0.0088,-0.0115,-0.0117,-0.0103,-0.0104,-0.0105,-0.0105,0,0,0.0131,0.0138,0.0142,0.0158,0.0151,0.0157,0.0165,0.0165,0.0177,0.0135,0.0142,0.01,0.0069,0.0055,0.002,-0.0004,-0.0022,-0.004,-0.0042,-0.0057,-0.0078,-0.0099,-0.0104,-0.0047,-0.0047,-0.0047,-0.0099,0,0.0165,0.0201,0.0193,0.0232,0.0252,0.0233,0.0249,0.0242,0.0223,0.0219,0.0168,0.0156,0.0103,0.0093,0.006,0.0002,-0.0025,-0.0005,-0.0097,-0.0099,-0.0115,-0.0106,-0.0079,-0.0124,-0.0102,-0.0102,-0.0102,0,0.0204,0.0225,0.0268,0.03,0.0307,0.0321,0.0345,0.0354,0.0336,0.0317,0.0286,0.0244,0.0207,0.0154,0.0064,0.0079,0.0008,-0.0045,-0.0049,-0.0084,-0.0124,-0.0139,-0.013,-0.0107,-0.0107,-0.0106,-0.0106,0,0.0248,0.0283,0.0322,0.0331,0.0354,0.037,0.0384,0.0382,0.0406,0.0377,0.0384,0.0319,0.0298,0.0201,0.0088,0.0076,-0.0015,-0.0048,-0.0134,-0.0136,-0.0139,-0.0141,-0.0114,-0.0114,-0.0114,-0.0114,-0.0113,0,0.0296,0.0328,0.0344,0.0365,0.0423,0.0417,0.0468,0.0467,0.0479,0.0518,0.0437,0.045,0.0308,0.0238,0.0119,-0.0009,0.0005,-0.0121,-0.0149,-0.0121,-0.0121,-0.0127,-0.0127,-0.0116,-0.0115,-0.0115,-0.0114,0,0.0339,0.0347,0.0396,0.0427,0.0444,0.0483,0.0534,0.0573,0.0565,0.0612,0.0609,0.0555,0.0461,0.0314,0.0163,0.0044,-0.0086,-0.0138,-0.0094,-0.0116,-0.0198,-0.0196,-0.0236,-0.0237,-0.0238,-0.0239,-0.024,0,0.0364,0.0393,0.0444,0.0482,0.0497,0.055,0.0597,0.0615,0.0665,0.0683,0.0721,0.0647,0.0613,0.038,0.0161,-0.005,-0.0084,-0.0176,-0.02,-0.0186,-0.021,-0.0206,-0.0202,-0.0185,-0.0185,-0.0185,-0.0185,0,0.0418,0.0431,0.0473,0.0547,0.06,0.0668,0.0733,0.0789,0.0819,0.0856,0.0895,0.0869,0.0654,0.0454,0.0156,0.0009,-0.0143,-0.0187,-0.0179,-0.0158,-0.0143,-0.0164,-0.0162,-0.0187,-0.0187,-0.0186,-0.0186,-0.0186,0.0459,0.0497,0.0549,0.0622,0.0688,0.0774,0.0833,0.0909,0.0994,0.1046,0.1024,0.0977,0.0753,0.0378,0.013,-0.0146,-0.014,-0.0242,-0.024,-0.0238,-0.0223,-0.021,-0.0263,-0.0264,-0.0264,-0.0264,-0.0264,0,0.0514,0.0553,0.0623,0.0705,0.0781,0.0805,0.0921,0.098,0.1078,0.1114,0.1131,0.0928,0.0698,0.0428,0.003,-0.0204,-0.022,-0.0286,-0.0247,-0.0244,-0.0242,-0.0226,-0.0268,-0.0269,-0.027,-0.027,0,0,0.0545,0.0614,0.0645,0.0767,0.0824,0.0925,0.0989,0.1081,0.113,0.1165,0.1135,0.1073,0.0765,0.0482,0.0173,-0.0053,-0.0104,-0.0104,-0.0076,0.0008,0.0013,-0.0192,-0.0161,0,0,0,0,0]}],[{"header":{"parameterUnit":"m.s-1","parameterCategory":2,"la1":30.2991,"la2":30.254,"lo1":-89.0895,"lo2":-89.0444,"dy":0.0017,"dx":0.0017,"nx":28,"ny":28,"refTime":"2024-11-30T09:00:00:Z","depth":"4","parameterNumber":2,"parameterNumberName":"U-component_of_CURRENTS"},"data":[0,0,0,0,0,0,0,0,0,0,0,0,0,0,0,0,0,0,0,0,0,0,0,0,0,0,0,0,0,0,0,0,0,0,0,0,0,0,0,0,0,0,0,0,0,0,0,0,0,0,0,0,0,0,0,0,0,0,0.1561,0.1562,0,0.1609,0.1609,0.161,0.1657,0.1658,0.1659,0.1659,0.1726,0.1728,0.1729,0,0,0,0,0,0,0,0,0,0,0,0,0,0.1509,0.151,0.1561,0.1562,0.1563,0.1609,0.1609,0.161,0.1657,0.1658,0.1659,0.166,0.1726,0.1727,0.1729,0,0,0,0,0,0,0,0,0,0,0,0,0,0.154,0.151,0.1561,0.1593,0.1596,0.1609,0.1609,0.161,0.1657,0.1658,0.1659,0.166,0.1726,0.1727,0.1729,0.1717,0,0,0.1734,0.1735,0,0,0,0,0,0,0,0,0.1539,0.1542,0.1587,0.159,0.1594,0.1629,0.1616,0.1647,0.1657,0.1632,0.1659,0.1661,0.1696,0.17,0.1704,0.172,0.1723,0.1734,0.1735,0.1736,0.1736,0,0,0,0,0,0,0,0.1536,0.154,0.1579,0.1588,0.1592,0.1604,0.161,0.1622,0.1657,0.1635,0.1638,0.1645,0.1698,0.1703,0.1706,0.1724,0.1734,0.1735,0.1737,0.1737,0.1837,0.1839,0,0,0,0,0,0,0.1532,0.1538,0.1577,0.158,0.157,0.1604,0.161,0.1616,0.1656,0.1664,0.1644,0.1648,0.1699,0.1704,0.1709,0.179,0.1736,0.1737,0.1738,0.1835,0.1837,0.1839,0,0,0,0,0,0,0.1531,0.1535,0.1575,0.1562,0.1568,0.1604,0.161,0.1616,0.1657,0.1664,0.1672,0.1683,0.17,0.1707,0.1753,0.1789,0.1738,0.174,0.1833,0.1836,0.1838,0.1891,0,0,0,0,0,0,0.1529,0.1534,0.1554,0.1561,0.1568,0.1605,0.1609,0.1616,0.1658,0.1663,0.1698,0.1703,0.1702,0.1751,0.1755,0.179,0.1741,0.1831,0.1835,0.1838,0.1887,0.1895,0.1902,0,0,0,0,0,0.1527,0.1542,0.1555,0.1561,0.1589,0.1607,0.1612,0.164,0.1659,0.168,0.1709,0.1704,0.1774,0.1754,0.1758,0.1795,0.183,0.1834,0.1837,0.1884,0.1894,0.1902,0,0,0,0,0,0,0.1532,0.1549,0.1563,0.1585,0.1606,0.1616,0.1643,0.1659,0.1698,0.1716,0.1722,0.1729,0.1785,0.1783,0.176,0.1834,0.1803,0.1807,0.1837,0.1846,0.1853,0.1858,0.1742,0,0,0,0,0,0.1541,0.1561,0.1575,0.1599,0.1612,0.1635,0.1653,0.1672,0.1698,0.1718,0.1742,0.177,0.1796,0.1817,0.1837,0.1874,0.1875,0.1902,0.1909,0.1915,0.1924,0.1955,0.1966,0.1852,0.1852,0.1852,0,0,0.155,0.1564,0.1577,0.1603,0.1624,0.1646,0.165,0.1688,0.1718,0.1717,0.1779,0.1799,0.1813,0.1858,0.1882,0.1865,0.195,0.192,0.1925,0.1931,0.196,0.1971,0.1981,0.1854,0.1854,0.1853,0,0,0.1566,0.1592,0.1611,0.1632,0.1669,0.168,0.1699,0.173,0.1761,0.1808,0.1823,0.1867,0.1903,0.1923,0.1935,0.1995,0.1988,0.2007,0.2048,0.2079,0.2088,0.2097,0.2113,0.2123,0.201,0.201,0.201,0,0.1581,0.1603,0.1621,0.1645,0.1669,0.1699,0.1727,0.1756,0.1803,0.1833,0.1839,0.1917,0.1932,0.1985,0.2011,0.2012,0.2024,0.2011,0.2088,0.2096,0.2104,0.2119,0.2128,0.2013,0.2012,0.2012,0.2012,0,0.1598,0.1632,0.1647,0.1685,0.1713,0.1745,0.178,0.1826,0.1866,0.1892,0.1966,0.199,0.2036,0.2051,0.2051,0.2119,0.2109,0.2093,0.2062,0.2118,0.2131,0.214,0.2017,0.2016,0.2015,0.2014,0,0,0.1587,0.1647,0.1658,0.1683,0.1741,0.1758,0.1821,0.1875,0.1921,0.1976,0.2034,0.209,0.2115,0.2131,0.2144,0.2174,0.224,0.2165,0.2165,0.2176,0.2307,0.2161,0.2156,0.224,0.2242,0.2244,0.2293,0,0.1599,0.1642,0.1676,0.1728,0.1751,0.1806,0.1856,0.1915,0.1968,0.2033,0.208,0.214,0.2141,0.2176,0.221,0.2237,0.2267,0.2228,0.2256,0.2257,0.2115,0.2163,0.225,0.23,0.2302,0.2303,0.2305,0,0.1597,0.1628,0.1679,0.1746,0.1764,0.1808,0.1894,0.1945,0.2039,0.2084,0.2156,0.2193,0.2269,0.2251,0.2329,0.2307,0.2319,0.2327,0.2329,0.218,0.2127,0.2234,0.2321,0.2319,0.2318,0.2317,0.2316,0,0.1555,0.1627,0.1669,0.1692,0.1774,0.1822,0.1877,0.1969,0.2024,0.213,0.2181,0.226,0.2318,0.2351,0.2386,0.2369,0.245,0.242,0.2297,0.2287,0.238,0.2371,0.2469,0.2468,0.2468,0.2468,0.2468,0,0.153,0.1567,0.1659,0.1679,0.1742,0.1809,0.1889,0.1957,0.2061,0.212,0.2213,0.2261,0.235,0.2404,0.2413,0.2383,0.2475,0.2312,0.2292,0.2401,0.2394,0.2386,0.2376,0.247,0.247,0.2469,0.2469,0,0.1471,0.1533,0.1585,0.1685,0.1723,0.177,0.1895,0.1943,0.2056,0.2139,0.2181,0.2296,0.2353,0.2415,0.2471,0.2404,0.2396,0.2362,0.2485,0.247,0.2204,0.2197,0.2217,0.2212,0.2208,0.2205,0.2202,0,0.1438,0.1462,0.1578,0.1616,0.167,0.1755,0.1809,0.1931,0.198,0.2132,0.2155,0.2266,0.2322,0.2281,0.2357,0.2357,0.233,0.2308,0.2243,0.2201,0.2181,0.2179,0.2177,0.2196,0.2195,0.2194,0.2193,0,0.1377,0.1439,0.1483,0.1561,0.1627,0.1685,0.1774,0.1796,0.1925,0.205,0.207,0.2094,0.2153,0.218,0.2204,0.22,0.2309,0.2266,0.2273,0.2212,0.2175,0.2159,0.2161,0.2179,0.2181,0.2182,0.2183,0,0.1341,0.1358,0.1429,0.1483,0.1561,0.1582,0.1642,0.1687,0.1747,0.1906,0.1908,0.2015,0.2126,0.21,0.2121,0.2108,0.2067,0.1988,0.2009,0.2025,0.1939,0.1863,0.1759,0,0,0,0,0,0.129,0.1294,0.1341,0.1384,0.1455,0.1497,0.1598,0.1658,0.1782,0.1745,0.1818,0.1855,0.1875,0.1935,0.1881,0.2046,0.2085,0.1975,0.2007,0.2102,0.2118,0.2034,0,0,0,0,0,0,0.1254,0.1295,0.1303,0.1287,0.1297,0.1354,0.1411,0.1498,0.1483,0.1617,0.1636,0.174,0.1791,0.1881,0.1843,0.1862,0.1843,0.205,0.2045,0.2093,0.2108,0.212,0.204,0,0,0,0,0]},{"header":{"parameterUnit":"m.s-1","parameterCategory":2,"la1":30.2991,"la2":30.254,"lo1":-89.0895,"lo2":-89.0444,"dy":0.0017,"dx":0.0017,"nx":28,"ny":28,"refTime":"2024-11-30T09:00:00:Z","depth":"4","parameterNumber":3,"parameterNumberName":"V-component_of_CURRENTS"},"data":[0,0,0,0,0,0,0,0,0,0,0,0,0,0,0,0,0,0,0,0,0,0,0,0,0,0,0,0,0,0,0,0,0,0,0,0,0,0,0,0,0,0,0,0,0,0,0,0,0,0,0,0,0,0,0,0,0,0,0.0118,0.0118,0,0.0082,0.0082,0.0082,0.0058,0.0058,0.0058,0.0057,0.0023,0.0022,0.0022,0,0,0,0,0,0,0,0,0,0,0,0,0,0.014,0.014,0.0118,0.0118,0.0118,0.0083,0.0082,0.0081,0.0058,0.0058,0.0058,0.0057,0.0023,0.0022,0.0022,0,0,0,0,0,0,0,0,0,0,0,0,0,0.012,0.014,0.0118,0.0102,0.01,0.0083,0.0082,0.0081,0.0058,0.0058,0.0057,0.0057,0.0024,0.0023,0.0021,0.0017,0,0,0.0018,0.0017,0,0,0,0,0,0,0,0,0.0121,0.0119,0.0105,0.0103,0.0101,0.0075,0.0077,0.006,0.0058,0.0073,0.0057,0.0057,0.0041,0.0038,0.0031,0.0015,0.0014,0.0018,0.0017,0.0016,0.0016,0,0,0,0,0,0,0,0.0123,0.012,0.0103,0.0104,0.0102,0.0088,0.0085,0.0074,0.0058,0.0072,0.007,0.0067,0.004,0.0032,0.003,0.0013,0.0018,0.0016,0.0016,0.0015,-0.0006,-0.0006,0,0,0,0,0,0,0.013,0.0122,0.0105,0.0102,0.0112,0.0087,0.0084,0.0083,0.0058,0.0054,0.0067,0.0066,0.0035,0.0032,0.0029,0.0032,0.0016,0.0015,0.0014,-0.0006,-0.0006,-0.0006,0,0,0,0,0,0,0.013,0.0129,0.0106,0.0112,0.0108,0.0087,0.0086,0.0082,0.0076,0.0055,0.0051,0.0066,0.0034,0.0031,0.0024,0.003,0.0015,0.0013,-0.0006,-0.0006,-0.0006,0.0032,0,0,0,0,0,0,0.0131,0.0129,0.0132,0.0112,0.0108,0.0101,0.0086,0.0082,0.0075,0.0073,0.0052,0.0048,0.0034,0.0026,0.0023,0.0028,0.0013,-0.0007,-0.0006,-0.0006,0.003,0.0033,0.0036,0,0,0,0,0,0.0132,0.0137,0.0132,0.013,0.0112,0.0101,0.0098,0.0082,0.0075,0.0075,0.0062,0.0049,0.0025,0.0025,0.0021,0.0027,-0.0007,-0.0006,-0.0006,0.0029,0.0033,0.0036,0,0,0,0,0,0,0.0147,0.0134,0.0129,0.0129,0.0119,0.0098,0.0097,0.0086,0.0074,0.0074,0.0052,0.0048,0.0043,0.003,0.003,0.0021,0.0007,0.0006,0.0035,0.0038,0.0041,0.0054,0.0012,0,0,0,0,0,0.0152,0.0153,0.0138,0.0139,0.0136,0.0117,0.0111,0.0102,0.0088,0.0083,0.0067,0.0052,0.0041,0.0036,0.0023,0.002,0.0,0.002,0.0023,0.0025,0.0033,0.0005,0.0006,-0.0005,-0.0005,-0.0005,0,0,0.0157,0.0151,0.0151,0.0142,0.0133,0.0136,0.0113,0.0108,0.0112,0.0082,0.0081,0.0061,0.0042,0.0038,0.0034,0.0029,0.0017,0.0026,0.0028,0.0035,0.0005,0.0006,0.0007,-0.0004,-0.0004,-0.0004,0,0,0.0172,0.0165,0.0172,0.0167,0.0158,0.015,0.0151,0.0133,0.0126,0.0121,0.0101,0.0087,0.0069,0.0057,0.0049,0.006,0.0032,0.0053,0.008,0.0052,0.0053,0.0053,0.0028,0.0025,0.0056,0.0056,0.0056,0,0.0179,0.0188,0.0172,0.018,0.0182,0.016,0.0172,0.0162,0.0144,0.0142,0.0127,0.0098,0.008,0.0077,0.008,0.0067,0.0046,0.007,0.0056,0.0056,0.0056,0.0029,0.0026,0.0058,0.0058,0.0058,0.0057,0,0.0199,0.0208,0.0213,0.0218,0.0218,0.0224,0.0212,0.021,0.0197,0.0184,0.0173,0.0142,0.0126,0.0115,0.0101,0.0094,0.0077,0.0062,0.005,0.0059,0.003,0.0027,0.0061,0.006,0.0059,0.0059,0,0,0.0215,0.0226,0.0229,0.0244,0.0241,0.0246,0.0253,0.0254,0.0262,0.0233,0.0236,0.0207,0.0184,0.0173,0.0147,0.0123,0.01,0.0096,0.0094,0.0074,0.0038,0.0027,0.0021,0.008,0.0079,0.0079,0.0018,0,0.0239,0.0267,0.0265,0.0296,0.0311,0.0301,0.0313,0.0309,0.0296,0.0291,0.0253,0.0245,0.0208,0.0201,0.017,0.012,0.0092,0.0118,0.0029,0.0027,0.0018,0.0018,0.0078,0.0015,0.0014,0.0014,0.0013,0,0.0264,0.0281,0.0315,0.0344,0.035,0.0364,0.0383,0.0391,0.0376,0.0362,0.0338,0.0307,0.0273,0.0237,0.0154,0.0171,0.0111,0.0065,0.0061,0.0037,0.0009,0.0003,0.0006,0.0007,0.0007,0.0008,0.0008,0,0.029,0.0321,0.0353,0.0361,0.0384,0.04,0.0414,0.0413,0.0431,0.0408,0.041,0.0356,0.0336,0.0254,0.016,0.0156,0.0061,0.0041,-0.0027,-0.0029,-0.0017,-0.0017,-0.0021,-0.0021,-0.0021,-0.002,-0.002,0,0.0318,0.0346,0.037,0.0386,0.0433,0.0435,0.0476,0.0477,0.0485,0.0508,0.0452,0.0449,0.0339,0.0273,0.0176,0.0066,0.007,-0.002,-0.0044,-0.0,0.0003,-0.002,-0.0019,-0.0023,-0.0022,-0.0022,-0.0021,0,0.0341,0.0355,0.0396,0.0429,0.0447,0.0479,0.0528,0.0556,0.0553,0.058,0.0578,0.0522,0.0432,0.0316,0.0183,0.0096,-0.0015,-0.0057,0.0004,-0.0016,-0.0091,-0.0088,-0.0137,-0.0138,-0.0139,-0.0139,-0.014,0,0.0354,0.0377,0.043,0.0462,0.0479,0.0528,0.0566,0.0587,0.0617,0.0623,0.0639,0.0571,0.0513,0.0322,0.0188,0.0002,-0.0029,-0.0092,-0.0097,-0.0084,-0.0103,-0.0098,-0.0093,-0.0141,-0.0141,-0.0141,-0.0142,0,0.0379,0.0398,0.0432,0.0497,0.0544,0.06,0.0652,0.0681,0.0704,0.0708,0.0687,0.0589,0.0486,0.0329,0.0184,0.0049,-0.0055,-0.0101,-0.01,-0.0105,-0.009,-0.0106,-0.0101,-0.0144,-0.0144,-0.0144,-0.0143,0,0.0399,0.0427,0.0473,0.053,0.0594,0.0651,0.0677,0.0709,0.0739,0.0742,0.0733,0.0617,0.0553,0.0353,0.022,0.0085,0.0045,-0.001,-0.0015,-0.0014,0.0035,0.0074,0.0052,0,0,0,0,0,0.0416,0.0449,0.0503,0.0564,0.0627,0.0665,0.0727,0.0746,0.077,0.0763,0.075,0.0652,0.0456,0.0375,0.0239,0.0194,0.0015,0.0028,-0.0052,-0.0159,-0.0156,-0.0121,0,0,0,0,0,0,0.0427,0.0478,0.0503,0.0582,0.0628,0.0699,0.0741,0.0758,0.0752,0.0754,0.0657,0.0608,0.0424,0.0538,0.0236,0.0195,0.0121,-0.0059,-0.0063,-0.016,-0.0158,-0.0155,-0.0119,0,0,0,0,0]}]]